Location: Foulognes
(49.1413°N, 0.8183°W)
Time: 12:01:50
(UTC+00:00)

STARLINK-80 - Pass Details

Date: 21 October 2019
Orbit: 494 x 496 km, 53.0° (Epoch: 21 November)

Event Time Altitude Azimuth Distance (km) Brightness Sun altitude
Rises 19:04:52 0° 293° (WNW) 2,586 8.4 -20.7°
Reaches altitude 10° 19:07:03 10° 295° (WNW) 1,700 7.2 -21.1°
Enters shadow 19:10:52 79° 13° (NNE) 511 3.3 -21.7°
